Weather History for Kahului, HI

Change the Weather History Date:

Sunday, March 17, 2013

  Actual Average Record
Temperature  
Mean Temperature 69 °F 73 °F  
Max Temperature 78 °F 81 °F 90 °F (1952)
Min Temperature 60 °F 65 °F 54 °F (1958)
Degree Days  
Heating Degree Days 0 0  
Month to date heating degree days 0 0  
Since 1 July heating degree days 0 0  
Cooling Degree Days 4 8  
Month to date cooling degree days 127 128  
Year to date cooling degree days 560 537  
Growing Degree Days 18 (Base 50)    
Moisture  
Dew Point 58 °F    
Average Humidity 76    
Maximum Humidity 97    
Minimum Humidity 54    
Precipitation  
Precipitation 0.00 in 0.08 in 3.07 in (1967)
Month to date precipitation 0.84 1.33  
Year to date precipitation 5.79 6.09  
Snow  
Snow 0.00 in - - ()
Month to date snowfall 0.0  
Since 1 July snowfall 0.0  
Snow Depth 0.00 in    
Sea Level Pressure  
Sea Level Pressure 30.02 in    
Wind  
Wind Speed 6 mph (North)    
Max Wind Speed 16 mph    
Max Gust Speed 22 mph    
Visibility 10 miles    
Events      
T = Trace of Precipitation, MM = Missing Value Source: NWS Daily Summary

Daily Weather History Graph

Daily Weather History Graph

Search for Another Location

Airport:

Trip Planner

Search our weather history database for the weather conditions in past years. The results will help you decide how hot, cold, wet, or windy it might be!

Date:

Astronomy

Mar. 17, 2013 Rise Set
Actual Time 6:32 AM HST 6:35 PM HST
Civil Twilight 6:09 AM HST 6:58 PM HST
Nautical Twilight 5:44 AM HST 7:23 PM HST
Astronomical Twilight 5:18 AM HST 7:49 PM HST
Moon 10:34 AM HST (3/17) No Moon Set
Length of Visible Light 12h 48m
Length of Day
12h 03m
Waxing Crescent, 33% of the Moon is Illuminated
Mar 17
Waxing Crescent
Mar 19
First Quarter
Mar 26
Full
Apr 2
Last Quarter
Apr 9
New

Hourly Weather History & Observations

Time (HST) Temp. Dew Point Humidity Pressure Visibility Wind Dir Wind Speed Gust Speed Precip Events Conditions
12:54 AM 69.1 °F 59.0 °F 70% 30.01 in 10.0 mi NW 6.9 mph - N/A   Scattered Clouds
1:54 AM 69.1 °F 57.9 °F 68% 30.00 in 10.0 mi North 9.2 mph - N/A   Clear
2:54 AM 68.0 °F 59.0 °F 73% 29.99 in 10.0 mi NW 4.6 mph - N/A   Clear
3:54 AM 68.0 °F 57.9 °F 70% 29.99 in 10.0 mi NNW 5.8 mph - N/A   Scattered Clouds
4:54 AM 62.1 °F 59.0 °F 90% 29.99 in 10.0 mi Calm Calm - N/A   Partly Cloudy
5:54 AM 61.0 °F 59.0 °F 93% 30.00 in 10.0 mi SSE 3.5 mph - N/A   Clear
6:54 AM 60.1 °F 57.9 °F 93% 30.01 in 10.0 mi Calm Calm - N/A   Scattered Clouds
7:54 AM 66.9 °F 60.1 °F 79% 30.03 in 10.0 mi Calm Calm - N/A   Scattered Clouds
8:54 AM 73.9 °F 57.9 °F 57% 30.04 in 10.0 mi North 8.1 mph - N/A   Scattered Clouds
9:54 AM 73.9 °F 57.9 °F 57% 30.06 in 10.0 mi NNE 12.7 mph - N/A   Scattered Clouds
10:54 AM 75.0 °F 61.0 °F 62% 30.05 in 10.0 mi North 15.0 mph - N/A   Scattered Clouds
11:54 AM 75.9 °F 59.0 °F 56% 30.05 in 10.0 mi North 11.5 mph - N/A   Scattered Clouds
12:54 PM 75.9 °F 57.9 °F 54% 30.02 in 10.0 mi North 11.5 mph - N/A   Partly Cloudy
1:54 PM 75.9 °F 57.9 °F 54% 29.99 in 10.0 mi North 10.4 mph - N/A   Scattered Clouds
2:54 PM 75.0 °F 57.0 °F 53% 29.97 in 10.0 mi NNE 10.4 mph - N/A   Scattered Clouds
3:54 PM 75.0 °F 57.0 °F 53% 29.97 in 10.0 mi NNE 9.2 mph - N/A   Scattered Clouds
4:54 PM 73.9 °F 57.0 °F 55% 29.98 in 10.0 mi North 9.2 mph - N/A   Partly Cloudy
5:54 PM 72.0 °F 57.0 °F 59% 30.00 in 10.0 mi North 10.4 mph - N/A   Partly Cloudy
6:54 PM 69.1 °F 57.0 °F 65% 30.02 in 10.0 mi North 5.8 mph - N/A   Mostly Cloudy
7:54 PM 69.1 °F 57.9 °F 68% 30.04 in 10.0 mi NNE 4.6 mph - N/A   Mostly Cloudy
8:54 PM 64.0 °F 59.0 °F 84% 30.05 in 10.0 mi Calm Calm - N/A   Mostly Cloudy
9:54 PM 63.0 °F 57.9 °F 84% 30.07 in 10.0 mi Calm Calm - N/A   Clear
10:54 PM 62.1 °F 57.0 °F 84% 30.07 in 10.0 mi Calm Calm - N/A   Mostly Cloudy
11:54 PM 60.1 °F 57.0 °F 90% 30.07 in 10.0 mi SSE 3.5 mph - N/A   Partly Cloudy